• Em Portugal
  • Lista de países
  • Para 7 dias
  • Temperatura da água
  • Mapas de satélite
  • Mapa do tempo
  • Widgets de tempo
  • user-avatar
    Iniciar Sessão

    Previsão horária em Abovyan

    Hoje, 18 Julho, Quarta-feira

    Tempo Temperatura Precipitação Vento Pressão Humidade
    00:00 +19°C° 0 mm 2 m/s 668 mmHg 71%
    01:00 +19°C° 0 mm 2 m/s 668 mmHg 71%
    02:00 +18°C° 0 mm 2 m/s 668 mmHg 71%
    03:00 +18°C° 0 mm 2 m/s 667 mmHg 71%
    04:00 +19°C° 0 mm 1 m/s 667 mmHg 69%
    05:00 +20°C° 0 mm 1 m/s 668 mmHg 67%
    06:00 +21°C° 0 mm 1 m/s 668 mmHg 65%
    07:00 +23°C° 0 mm 1 m/s 668 mmHg 58%
    08:00 +25°C° 0 mm 1 m/s 668 mmHg 50%
    09:00 +27°C° 0 mm 2 m/s 668 mmHg 43%
    10:00 +29°C° 0 mm 2 m/s 668 mmHg 39%
    11:00 +30°C° 0 mm 2 m/s 667 mmHg 35%
    12:00 +32°C° 0 mm 2 m/s 667 mmHg 32%
    13:00 +32°C° 0,1 mm 2 m/s 667 mmHg 31%
    14:00 +34°C° 0,1 mm 2 m/s 667 mmHg 30%
    15:00 +34°C° 0,1 mm 3 m/s 667 mmHg 29%
    16:00 +32°C° 0,2 mm 2 m/s 667 mmHg 32%
    17:00 +32°C° 0,2 mm 2 m/s 666 mmHg 35%
    18:00 +31°C° 0,2 mm 2 m/s 666 mmHg 39%
    19:00 +29°C° 0,1 mm 2 m/s 666 mmHg 46%
    20:00 +27°C° 0,1 mm 3 m/s 666 mmHg 53%
    21:00 +24°C° 0,1 mm 3 m/s 666 mmHg 60%
    22:00 +24°C° 0 mm 3 m/s 666 mmHg 63%
    23:00 +22°C° 0 mm 3 m/s 666 mmHg 65%

    Amanhã, 19 Julho, Quinta-feira

    Tempo Temperatura Precipitação Vento Pressão Humidade
    00:00 +23°C° 0 mm 2 m/s 666 mmHg 67%
    01:00 +21°C° 0 mm 2 m/s 666 mmHg 67%
    02:00 +21°C° 0 mm 2 m/s 666 mmHg 68%
    03:00 +20°C° 0 mm 2 m/s 666 mmHg 68%
    04:00 +21°C° 0 mm 2 m/s 666 mmHg 67%
    05:00 +21°C° 0 mm 2 m/s 666 mmHg 65%
    06:00 +23°C° 0 mm 1 m/s 667 mmHg 64%
    07:00 +25°C° 0 mm 2 m/s 667 mmHg 55%
    08:00 +27°C° 0 mm 2 m/s 667 mmHg 47%
    09:00 +30°C° 0 mm 2 m/s 668 mmHg 38%
    10:00 +31°C° 0 mm 2 m/s 668 mmHg 34%
    11:00 +34°C° 0 mm 3 m/s 668 mmHg 30%
    12:00 +35°C° 0 mm 3 m/s 668 mmHg 25%
    13:00 +36°C° 0 mm 3 m/s 668 mmHg 24%
    14:00 +36°C° 0 mm 3 m/s 667 mmHg 23%
    15:00 +37°C° 0 mm 3 m/s 667 mmHg 22%
    16:00 +36°C° 0 mm 3 m/s 667 mmHg 25%
    17:00 +35°C° 0 mm 2 m/s 667 mmHg 28%
    18:00 +34°C° 0 mm 2 m/s 667 mmHg 32%
    19:00 +31°C° 0,1 mm 2 m/s 667 mmHg 40%
    20:00 +28°C° 0,1 mm 3 m/s 667 mmHg 48%
    21:00 +26°C° 0,1 mm 3 m/s 667 mmHg 55%
    22:00 +25°C° 0 mm 3 m/s 667 mmHg 59%
    23:00 +24°C° 0 mm 3 m/s 667 mmHg 63%

    Depois de amanhã, 20 Julho, Sexta-feira

    Tempo Temperatura Precipitação Vento Pressão Humidade
    00:00 +24°C° 0 mm 3 m/s 667 mmHg 66%
    01:00 +23°C° 0 mm 2 m/s 667 mmHg 67%
    02:00 +23°C° 0 mm 2 m/s 667 mmHg 67%
    03:00 +21°C° 0 mm 2 m/s 667 mmHg 68%
    04:00 +23°C° 0 mm 2 m/s 667 mmHg 66%
    05:00 +23°C° 0 mm 2 m/s 667 mmHg 65%
    06:00 +24°C° 0 mm 2 m/s 667 mmHg 63%
    07:00 +26°C° 0 mm 2 m/s 667 mmHg 53%
    08:00 +28°C° 0 mm 2 m/s 668 mmHg 43%
    09:00 +31°C° 0 mm 2 m/s 668 mmHg 33%
    10:00 +32°C° 0 mm 2 m/s 668 mmHg 29%
    11:00 +35°C° 0 mm 2 m/s 668 mmHg 26%
    12:00 +36°C° 0 mm 3 m/s 668 mmHg 22%
    13:00 +36°C° 0 mm 3 m/s 667 mmHg 21%
    14:00 +37°C° 0 mm 3 m/s 667 mmHg 21%
    15:00 +37°C° 0 mm 3 m/s 667 mmHg 20%
    16:00 +36°C° 0,1 mm 3 m/s 666 mmHg 23%
    17:00 +35°C° 0,1 mm 3 m/s 666 mmHg 26%
    18:00 +35°C° 0,1 mm 3 m/s 666 mmHg 29%
    19:00 +31°C° 0 mm 3 m/s 666 mmHg 38%
    20:00 +28°C° 0 mm 3 m/s 666 mmHg 46%
    21:00 +26°C° 0 mm 3 m/s 666 mmHg 54%
    22:00 +25°C° 0,1 mm 3 m/s 666 mmHg 57%
    23:00 +24°C° 0,1 mm 3 m/s 666 mmHg 60%

    21 Julho, Sábado

    Tempo Temperatura Precipitação Vento Pressão Humidade
    00:00 +24°C° 0,1 mm 3 m/s 666 mmHg 62%
    01:00 +22°C° 0 mm 3 m/s 666 mmHg 64%
    02:00 +22°C° 0 mm 3 m/s 666 mmHg 65%
    03:00 +21°C° 0 mm 3 m/s 666 mmHg 66%
    04:00 +21°C° 0 mm 2 m/s 666 mmHg 65%
    05:00 +21°C° 0 mm 2 m/s 667 mmHg 64%
    06:00 +23°C° 0 mm 2 m/s 667 mmHg 63%
    07:00 +25°C° 0 mm 2 m/s 667 mmHg 57%
    08:00 +27°C° 0 mm 2 m/s 667 mmHg 50%
    09:00 +29°C° 0 mm 2 m/s 668 mmHg 44%
    10:00 +30°C° 0 mm 2 m/s 667 mmHg 39%
    11:00 +32°C° 0 mm 2 m/s 667 mmHg 34%
    12:00 +34°C° 0 mm 2 m/s 667 mmHg 29%
    13:00 +35°C° 0,1 mm 2 m/s 667 mmHg 28%
    14:00 +35°C° 0,1 mm 2 m/s 667 mmHg 26%
    15:00 +36°C° 0,1 mm 2 m/s 667 mmHg 25%
    16:00 +35°C° 0 mm 3 m/s 667 mmHg 29%
    17:00 +34°C° 0 mm 3 m/s 667 mmHg 34%
    18:00 +33°C° 0 mm 4 m/s 666 mmHg 38%
    19:00 +30°C° 0,2 mm 3 m/s 667 mmHg 47%
    20:00 +27°C° 0,2 mm 3 m/s 667 mmHg 55%
    21:00 +25°C° 0,2 mm 3 m/s 667 mmHg 64%
    22:00 +24°C° 0,2 mm 3 m/s 667 mmHg 66%
    23:00 +22°C° 0,2 mm 3 m/s 667 mmHg 69%

    22 Julho, Domingo

    Tempo Temperatura Precipitação Vento Pressão Humidade
    00:00 +22°C° 0,2 mm 3 m/s 667 mmHg 72%
    01:00 +21°C° 0,2 mm 3 m/s 667 mmHg 73%
    02:00 +21°C° 0,2 mm 3 m/s 667 mmHg 75%
    03:00 +20°C° 0,2 mm 2 m/s 667 mmHg 77%
    04:00 +21°C° 0 mm 2 m/s 667 mmHg 75%
    05:00 +21°C° 0 mm 2 m/s 667 mmHg 74%
    06:00 +21°C° 0 mm 2 m/s 667 mmHg 72%
    07:00 +24°C° 0 mm 2 m/s 667 mmHg 64%
    08:00 +26°C° 0 mm 2 m/s 667 mmHg 56%
    09:00 +28°C° 0 mm 2 m/s 667 mmHg 48%
    10:00 +30°C° 0,1 mm 2 m/s 667 mmHg 43%
    11:00 +31°C° 0,1 mm 2 m/s 667 mmHg 39%
    12:00 +32°C° 0,1 mm 2 m/s 667 mmHg 34%
    13:00 +34°C° 0,2 mm 2 m/s 667 mmHg 33%
    14:00 +34°C° 0,2 mm 3 m/s 667 mmHg 32%
    15:00 +35°C° 0,2 mm 3 m/s 666 mmHg 31%
    16:00 +34°C° 0,5 mm 3 m/s 666 mmHg 35%
    17:00 +33°C° 0,5 mm 3 m/s 666 mmHg 39%
    18:00 +31°C° 0,5 mm 3 m/s 666 mmHg 43%
    19:00 +29°C° 0,2 mm 3 m/s 666 mmHg 49%
    20:00 +27°C° 0,2 mm 3 m/s 666 mmHg 55%
    21:00 +25°C° 0,2 mm 3 m/s 666 mmHg 60%
    22:00 +24°C° 0,2 mm 3 m/s 666 mmHg 62%
    23:00 +24°C° 0,2 mm 3 m/s 666 mmHg 64%

    23 Julho, Segunda-feira

    Tempo Temperatura Precipitação Vento Pressão Humidade
    00:00 +22°C° 0,2 mm 3 m/s 666 mmHg 65%
    01:00 +22°C° 0,1 mm 3 m/s 666 mmHg 68%
    02:00 +21°C° 0,1 mm 2 m/s 666 mmHg 70%
    03:00 +21°C° 0,1 mm 2 m/s 666 mmHg 72%
    04:00 +21°C° 0 mm 2 m/s 666 mmHg 71%
    05:00 +21°C° 0 mm 2 m/s 667 mmHg 70%
    06:00 +23°C° 0 mm 2 m/s 667 mmHg 69%
    07:00 +25°C° 0 mm 2 m/s 667 mmHg 61%
    08:00 +27°C° 0 mm 2 m/s 667 mmHg 53%
    09:00 +29°C° 0 mm 2 m/s 667 mmHg 45%
    10:00 +31°C° 0 mm 2 m/s 667 mmHg 41%
    11:00 +32°C° 0 mm 2 m/s 667 mmHg 37%
    12:00 +35°C° 0 mm 2 m/s 667 mmHg 33%
    13:00 +35°C° 0,1 mm 3 m/s 667 mmHg 32%
    14:00 +35°C° 0,1 mm 3 m/s 667 mmHg 31%
    15:00 +36°C° 0,1 mm 3 m/s 666 mmHg 31%
    16:00 +35°C° 0,3 mm 3 m/s 666 mmHg 34%
    17:00 +34°C° 0,3 mm 3 m/s 666 mmHg 36%
    18:00 +33°C° 0,3 mm 3 m/s 666 mmHg 39%
    19:00 +30°C° 0,1 mm 3 m/s 666 mmHg 46%
    20:00 +28°C° 0,1 mm 3 m/s 666 mmHg 53%
    21:00 +26°C° 0,1 mm 3 m/s 667 mmHg 60%
    22:00 +25°C° 0 mm 3 m/s 667 mmHg 62%
    23:00 +25°C° 0 mm 3 m/s 667 mmHg 64%
    Mostrar mais